�N����,����,�~����,�C��,���x,�C��,����,���ϕ���,�ő�u�ԕ���,�ő厞����,���˗�,�I�_���x,�n�����x,�ő啗���N��,DTYPE
"24/02/02","00:10",0.0,3.8,80.5,1018.5,325.9,3.6,7.9,339.6,0.00,0.8,7.5,"00:05:24",1
"24/02/02","00:20",0.0,3.9,79.9,1018.7,323.5,4.0,8.3,322.5,0.00,0.8,7.6,"00:11:22",1
"24/02/02","00:30",0.0,3.8,79.6,1019.0,322.3,3.0,5.6,311.8,0.00,0.6,7.6,"00:23:46",1
"24/02/02","00:40",0.0,3.9,79.6,1018.7,331.0,2.3,4.1,329.3,0.00,0.7,7.7,"00:31:04",1
"24/02/02","00:50",0.0,3.7,79.5,1018.7,342.8,2.5,5.2,340.5,0.00,0.5,7.7,"00:49:20",1
"24/02/02","01:00",0.0,3.7,79.2,1019.0,328.4,3.5,5.9,318.8,0.00,0.5,7.5,"00:53:08",1
"24/02/02","01:10",0.0,3.7,78.7,1019.0,319.4,3.0,6.8,325.9,0.00,0.4,7.5,"01:06:44",1
"24/02/02","01:20",0.0,3.8,78.0,1019.0,332.3,3.1,5.5,324.6,0.00,0.4,7.5,"01:12:18",1
"24/02/02","01:30",0.0,3.7,77.6,1019.0,333.9,2.2,4.5,348.5,0.00,0.2,7.3,"01:29:12",1
"24/02/02","01:40",0.0,3.7,77.4,1018.5,322.8,3.1,6.4,334.0,0.00,0.2,7.5,"01:35:10",1
"24/02/02","01:50",0.0,3.6,77.3,1019.2,336.8,2.8,5.9,311.0,0.00,0.0,7.4,"01:43:08",1
"24/02/02","02:00",0.0,3.5,77.0,1018.7,337.1,3.2,7.1,349.5,0.00,-0.1,7.4,"01:57:32",1
"24/02/02","02:10",0.0,3.4,76.9,1018.7,332.2,3.0,4.9,331.2,0.00,-0.2,7.5,"02:05:46",1
"24/02/02","02:20",0.0,3.5,76.2,1018.7,321.5,3.2,5.5,330.4,0.00,-0.3,7.4,"02:14:18",1
"24/02/02","02:30",0.0,3.3,75.8,1018.5,322.1,2.5,4.8,309.1,0.00,-0.5,7.3,"02:24:04",1
"24/02/02","02:40",0.0,3.4,75.7,1018.2,322.6,3.1,6.5,328.9,0.00,-0.4,7.5,"02:38:40",1
"24/02/02","02:50",0.0,3.3,75.7,1018.5,313.3,1.8,3.1,341.8,0.00,-0.5,7.3,"02:41:36",1
"24/02/02","03:00",0.0,3.3,75.8,1018.0,303.6,1.2,2.2,324.7,0.00,-0.5,7.5,"02:51:12",1
"24/02/02","03:10",0.0,3.3,76.1,1018.2,315.9,1.8,3.9,334.8,0.00,-0.5,7.2,"03:06:20",1
"24/02/02","03:20",0.0,3.4,76.1,1018.2,311.2,2.5,4.5,271.0,0.00,-0.4,7.6,"03:12:02",1
"24/02/02","03:30",0.0,3.3,76.2,1018.5,307.3,3.1,5.0,300.5,0.00,-0.4,7.1,"03:26:32",1
"24/02/02","03:40",0.0,3.3,76.4,1018.2,328.8,2.8,4.2,332.1,0.00,-0.4,7.2,"03:31:38",1
"24/02/02","03:50",0.0,3.0,76.6,1018.0,324.7,2.5,4.4,326.9,0.00,-0.7,7.2,"03:41:06",1
"24/02/02","04:00",0.0,2.8,77.5,1017.5,308.4,2.1,4.4,330.7,0.00,-0.7,7.1,"03:59:00",1
"24/02/02","04:10",0.0,2.9,78.3,1018.2,325.4,3.2,5.1,325.1,0.00,-0.5,7.2,"04:01:30",1
"24/02/02","04:20",0.0,2.9,78.9,1017.8,308.7,2.3,4.0,330.1,0.00,-0.4,7.2,"04:17:12",1
"24/02/02","04:30",0.0,2.8,79.4,1018.0,293.3,2.2,4.0,322.4,0.00,-0.4,7.2,"04:22:28",1
"24/02/02","04:40",0.0,2.9,79.8,1018.2,311.9,2.3,3.5,326.1,0.00,-0.2,7.3,"04:38:20",1
"24/02/02","04:50",0.0,2.7,79.9,1018.0,301.2,2.0,3.3,326.3,0.00,-0.4,6.9,"04:48:04",1
"24/02/02","05:00",0.0,2.6,80.1,1018.0,313.6,2.5,3.2,326.6,0.00,-0.4,7.0,"04:55:48",1
"24/02/02","05:10",0.0,2.5,80.4,1017.8,304.8,2.2,3.7,332.6,0.00,-0.5,7.0,"05:04:18",1
"24/02/02","05:20",0.0,2.4,80.8,1017.8,287.5,1.8,2.9,315.2,0.00,-0.5,7.0,"05:14:44",1
"24/02/02","05:30",0.0,2.3,81.1,1017.5,290.6,1.8,2.6,314.5,0.00,-0.6,7.0,"05:27:12",1
"24/02/02","05:40",0.0,1.9,81.7,1017.1,328.3,1.7,2.4,337.4,0.00,-0.9,7.0,"05:31:22",1
"24/02/02","05:50",0.0,1.7,82.9,1017.8,317.2,1.7,2.7,309.2,0.00,-0.8,7.0,"05:44:48",1
"24/02/02","06:00",0.0,2.1,83.7,1017.5,303.6,2.2,4.0,336.9,0.00,-0.3,6.8,"05:57:24",1
"24/02/02","06:10",0.0,2.3,83.7,1018.2,303.7,2.2,4.1,311.4,0.00,-0.1,7.1,"06:03:08",1
"24/02/02","06:20",0.0,2.5,83.1,1017.8,285.7,2.1,3.6,318.3,0.00,0.0,7.0,"06:14:06",1
"24/02/02","06:30",0.0,2.6,82.5,1018.2,297.4,1.8,2.8,301.9,0.00,0.0,7.0,"06:20:44",1
"24/02/02","06:40",0.0,2.6,82.1,1018.2,278.8,1.2,1.9,322.4,0.00,-0.1,6.9,"06:34:32",1
"24/02/02","06:50",0.0,2.6,81.8,1018.5,316.9,2.0,3.1,321.4,0.00,-0.2,7.0,"06:48:42",1
"24/02/02","07:00",0.0,2.6,81.6,1018.5,315.8,2.5,3.4,339.6,0.00,-0.2,6.8,"06:57:26",1
"24/02/02","07:10",0.0,2.7,81.5,1018.5,297.6,2.2,3.2,321.6,0.00,-0.1,6.7,"07:01:10",1
"24/02/02","07:20",0.0,2.7,81.4,1018.7,300.5,2.3,3.9,308.7,0.00,-0.1,6.9,"07:11:50",1
"24/02/02","07:30",0.0,2.8,81.3,1019.0,310.3,2.5,4.7,322.8,0.00,0.0,6.9,"07:23:32",1
"24/02/02","07:40",0.0,2.9,81.3,1019.2,311.2,2.6,3.6,327.8,0.00,0.1,6.8,"07:31:36",1
"24/02/02","07:50",0.0,3.0,81.1,1019.4,318.7,2.7,4.9,328.1,0.00,0.1,7.0,"07:46:48",1
"24/02/02","08:00",0.0,3.1,81.0,1019.2,303.7,2.6,4.0,311.5,0.01,0.2,6.9,"07:50:48",1
"24/02/02","08:10",0.0,3.2,80.9,1019.7,301.4,2.5,3.7,332.5,0.03,0.3,6.8,"08:01:46",1
"24/02/02","08:20",0.0,3.4,80.6,1019.4,304.7,2.7,4.0,334.8,0.04,0.4,6.9,"08:10:08",1
"24/02/02","08:30",0.0,3.5,80.2,1020.1,304.6,3.1,4.9,320.6,0.06,0.5,6.7,"08:27:14",1
"24/02/02","08:40",0.0,3.7,79.8,1019.7,308.8,2.6,5.1,316.8,0.05,0.6,6.6,"08:39:52",1
"24/02/02","08:50",0.0,3.8,79.4,1019.4,296.5,2.6,3.5,312.9,0.05,0.6,6.7,"08:40:16",1
"24/02/02","09:00",0.0,4.2,78.9,1019.4,293.1,2.3,3.5,276.9,0.12,0.9,6.7,"08:54:08",1
"24/02/02","09:10",0.0,4.3,77.9,1019.7,291.6,2.5,3.3,307.4,0.10,0.8,6.8,"09:00:24",1
"24/02/02","09:20",0.0,4.3,77.0,1019.7,289.3,2.6,4.3,262.2,0.08,0.7,7.0,"09:17:44",1
"24/02/02","09:30",0.0,4.3,76.3,1019.7,285.8,2.5,3.7,326.0,0.05,0.5,7.2,"09:29:12",1
"24/02/02","09:40",0.0,4.4,76.0,1020.4,285.3,2.6,4.4,324.2,0.07,0.6,7.1,"09:31:44",1
"24/02/02","09:50",0.0,4.5,75.5,1020.1,322.0,2.8,4.7,337.2,0.06,0.6,7.1,"09:42:48",1
"24/02/02","10:00",0.0,4.6,74.9,1020.1,342.5,2.0,4.2,40.7,0.05,0.6,6.8,"09:58:16",1
"24/02/02","10:10",0.0,4.6,74.4,1020.1,339.1,2.1,4.1,25.1,0.05,0.5,6.7,"10:09:42",1
"24/02/02","10:20",0.0,4.7,74.6,1020.4,326.4,3.4,6.4,325.7,0.06,0.6,7.0,"10:18:00",1
"24/02/02","10:30",0.0,4.7,74.2,1020.6,329.7,2.7,5.7,331.3,0.06,0.5,7.1,"10:25:44",1
"24/02/02","10:40",0.0,4.7,74.1,1021.1,336.7,3.4,6.6,324.9,0.06,0.5,7.1,"10:36:48",1
"24/02/02","10:50",0.0,5.0,74.3,1020.6,319.6,2.5,4.5,297.8,0.07,0.9,6.9,"10:41:28",1
"24/02/02","11:00",0.0,5.0,73.8,1020.4,349.7,1.8,4.0,337.5,0.09,0.8,6.9,"10:50:24",1
"24/02/02","11:10",0.0,5.0,73.2,1020.8,336.0,2.3,5.1,330.5,0.08,0.6,7.0,"11:07:04",1
"24/02/02","11:20",0.0,4.9,73.0,1020.6,349.9,2.1,4.4,336.3,0.07,0.5,7.0,"11:19:28",1
"24/02/02","11:30",0.0,5.1,73.1,1020.4,341.6,1.7,4.3,3.0,0.08,0.7,6.9,"11:28:16",1
"24/02/02","11:40",0.0,5.1,73.1,1020.8,320.6,2.5,4.2,300.3,0.08,0.7,6.9,"11:39:28",1
"24/02/02","11:50",0.0,5.2,73.4,1020.4,334.3,1.8,3.4,323.2,0.08,0.9,7.0,"11:42:56",1
"24/02/02","12:00",0.0,5.3,73.1,1020.4,339.8,1.8,3.5,346.9,0.10,0.9,7.1,"11:53:12",1
"24/02/02","12:10",0.0,5.3,73.1,1020.1,354.6,1.2,2.4,342.8,0.10,0.9,6.9,"12:03:28",1
"24/02/02","12:20",0.0,5.4,72.6,1019.9,305.5,2.5,5.4,237.8,0.12,0.9,7.1,"12:15:28",1
"24/02/02","12:30",0.0,5.4,72.6,1019.9,335.5,2.8,6.6,344.5,0.13,0.9,7.2,"12:26:32",1
"24/02/02","12:40",0.0,5.5,72.2,1020.4,330.2,3.9,6.5,325.8,0.16,0.9,7.2,"12:37:20",1
"24/02/02","12:50",0.0,5.6,71.5,1019.9,332.7,4.1,7.9,328.7,0.17,0.9,7.1,"12:43:36",1
"24/02/02","13:00",0.0,6.3,71.3,1020.1,327.6,3.1,5.8,310.1,0.27,1.5,7.2,"12:54:48",1
"24/02/02","13:10",0.0,6.3,69.2,1019.9,349.4,2.5,4.7,327.3,0.22,1.1,7.4,"13:06:56",1
"24/02/02","13:20",0.0,6.1,68.4,1019.7,336.6,3.9,6.6,312.3,0.20,0.8,7.3,"13:13:36",1
"24/02/02","13:30",0.0,6.6,67.6,1019.7,335.8,3.5,6.0,348.1,0.37,1.1,7.2,"13:29:16",1
"24/02/02","13:40",0.0,7.0,65.1,1019.9,348.0,4.1,7.3,356.3,0.41,0.9,7.6,"13:31:28",1
"24/02/02","13:50",0.0,7.0,63.3,1019.7,335.3,3.9,8.0,319.8,0.32,0.6,7.4,"13:47:28",1
"24/02/02","14:00",0.0,6.6,64.1,1019.9,337.2,5.0,9.7,328.4,0.21,0.3,7.5,"13:51:28",1
"24/02/02","14:10",0.0,7.1,64.2,1019.4,349.2,3.0,6.2,356.3,0.27,0.8,7.6,"14:05:28",1
"24/02/02","14:20",0.0,7.0,63.0,1019.9,343.3,2.8,5.9,358.9,0.23,0.5,7.4,"14:19:16",1
"24/02/02","14:30",0.0,6.3,64.2,1019.7,354.0,4.0,6.6,355.0,0.19,0.1,7.7,"14:22:08",1
"24/02/02","14:40",0.0,6.2,64.9,1020.1,345.6,4.4,8.5,341.0,0.16,0.1,7.6,"14:34:08",1
"24/02/02","14:50",0.0,6.5,63.5,1019.9,347.1,3.9,7.7,308.1,0.23,0.1,7.7,"14:42:48",1
"24/02/02","15:00",0.0,6.4,63.6,1020.1,340.2,4.2,9.7,339.5,0.19,0.0,7.7,"14:57:52",1
"24/02/02","15:10",0.0,6.4,63.0,1020.1,345.7,3.5,6.0,339.3,0.14,-0.1,7.6,"15:07:20",1
"24/02/02","15:20",0.0,6.4,62.5,1019.9,355.3,3.2,7.3,331.9,0.16,-0.2,7.8,"15:12:56",1
"24/02/02","15:30",0.0,6.4,62.3,1020.4,352.2,3.2,5.2,353.9,0.15,-0.2,7.8,"15:22:00",1
"24/02/02","15:40",0.0,6.5,62.6,1019.7,354.6,3.6,8.1,353.6,0.19,-0.1,7.8,"15:37:12",1
"24/02/02","15:50",0.0,6.6,61.3,1019.9,341.0,3.2,5.9,339.6,0.20,-0.3,7.7,"15:45:04",1
"24/02/02","16:00",0.0,6.8,61.0,1019.9,357.5,2.6,5.5,331.3,0.15,-0.1,7.8,"15:59:30",1
"24/02/02","16:10",0.0,6.8,61.1,1019.7,341.7,1.8,3.4,338.7,0.09,-0.1,7.8,"16:00:32",1
"24/02/02","16:20",0.0,6.2,62.7,1019.9,327.7,3.6,5.7,316.1,0.04,-0.3,7.9,"16:17:28",1
"24/02/02","16:30",0.0,5.9,64.7,1019.7,330.8,3.4,7.4,326.5,0.03,-0.2,7.8,"16:23:28",1
"24/02/02","16:40",0.0,5.8,64.8,1019.7,342.4,2.8,7.4,335.2,0.03,-0.3,8.2,"16:38:56",1
"24/02/02","16:50",0.0,5.7,65.1,1019.4,321.0,4.0,6.3,298.2,0.02,-0.3,7.8,"16:40:48",1
"24/02/02","17:00",0.0,5.6,66.0,1019.9,320.0,3.2,4.9,328.6,0.01,-0.2,8.0,"16:53:36",1
"24/02/02","17:10",0.0,5.5,66.8,1019.9,327.9,4.0,7.1,323.1,0.00,-0.1,7.9,"17:02:24",1
"24/02/02","17:20",0.0,5.4,67.3,1019.9,331.1,3.5,6.4,336.4,0.00,-0.1,8.1,"17:14:40",1
"24/02/02","17:30",0.0,5.3,67.3,1020.1,329.4,3.5,5.9,311.7,0.00,-0.2,7.8,"17:22:10",1
"24/02/02","17:40",0.0,5.2,67.3,1020.6,320.9,3.2,5.9,308.6,0.00,-0.3,7.8,"17:39:28",1
"24/02/02","17:50",0.0,5.3,66.6,1021.1,312.9,4.1,7.0,313.9,0.00,-0.4,7.6,"17:42:00",1
"24/02/02","18:00",0.0,5.1,66.6,1020.8,308.5,3.2,5.7,319.1,0.00,-0.6,7.7,"17:52:40",1
"24/02/02","18:10",0.0,5.0,66.4,1020.8,325.8,3.6,7.8,332.8,0.00,-0.7,7.5,"18:07:08",1
"24/02/02","18:20",0.0,4.9,66.6,1020.8,325.4,3.9,7.0,323.6,0.00,-0.7,7.8,"18:19:34",1
"24/02/02","18:30",0.0,5.0,65.6,1020.8,304.7,4.2,7.1,322.1,0.00,-0.9,7.6,"18:21:40",1
"24/02/02","18:40",0.0,4.8,66.8,1020.6,323.3,2.5,4.3,309.7,0.00,-0.8,7.7,"18:34:16",1
"24/02/02","18:50",0.0,4.7,67.3,1020.8,307.3,1.7,3.4,320.3,0.00,-0.8,7.8,"18:44:38",1
"24/02/02","19:00",0.0,4.8,67.4,1020.8,307.6,3.5,5.9,320.7,0.00,-0.7,7.8,"18:59:40",1
"24/02/02","19:10",0.0,4.9,66.7,1021.1,305.6,2.8,5.0,332.1,0.00,-0.7,7.6,"19:01:12",1
"24/02/02","19:20",0.0,4.7,67.5,1020.8,329.3,2.3,3.3,353.0,0.00,-0.8,7.5,"19:10:54",1
"24/02/02","19:30",0.0,4.5,68.2,1020.6,334.9,1.1,1.8,261.5,0.00,-0.8,7.7,"19:21:26",1
"24/02/02","19:40",0.0,4.3,68.7,1021.1,286.8,0.3,1.3,295.2,0.00,-0.9,7.4,"19:31:22",1
"24/02/02","19:50",0.0,4.3,69.9,1020.8,5.5,1.1,2.1,330.5,0.00,-0.7,7.5,"19:44:34",1
"24/02/02","20:00",0.0,4.1,70.7,1021.1,312.4,1.7,2.6,280.5,0.00,-0.7,7.7,"19:57:30",1
"24/02/02","20:10",0.0,4.0,71.2,1021.1,297.8,1.7,2.0,281.2,0.00,-0.7,7.6,"20:08:02",1
"24/02/02","20:20",0.0,3.8,72.4,1021.1,321.8,1.6,2.1,309.3,0.00,-0.7,7.5,"20:19:08",1
"24/02/02","20:30",0.0,3.5,73.5,1021.3,303.1,1.3,2.1,314.8,0.00,-0.7,7.5,"20:20:54",1
"24/02/02","20:40",0.0,3.5,74.6,1021.5,318.3,1.6,2.1,335.2,0.00,-0.5,7.4,"20:36:46",1
"24/02/02","20:50",0.0,3.5,75.6,1021.3,318.4,1.3,2.2,313.0,0.00,-0.4,7.5,"20:46:50",1
"24/02/02","21:00",0.0,3.3,76.5,1021.1,340.1,1.6,2.2,354.5,0.00,-0.4,7.6,"20:52:08",1
"24/02/02","21:10",0.0,3.3,77.1,1020.8,330.4,1.3,2.2,311.4,0.00,-0.3,7.3,"21:07:56",1
"24/02/02","21:20",0.0,3.1,77.8,1021.3,304.4,1.1,1.8,317.0,0.00,-0.4,7.3,"21:15:44",1
"24/02/02","21:30",0.0,3.2,78.3,1021.3,295.5,1.2,1.7,320.4,0.00,-0.2,7.4,"21:20:10",1
"24/02/02","21:40",0.0,3.3,78.7,1021.1,328.3,1.0,1.6,344.1,0.00,0.0,7.3,"21:35:46",1
"24/02/02","21:50",0.0,3.2,79.1,1021.3,328.6,0.7,1.8,337.9,0.00,0.0,7.3,"21:42:28",1
"24/02/02","22:00",0.0,3.2,79.5,1021.5,293.3,0.8,2.2,323.5,0.00,0.0,7.4,"21:54:20",1
"24/02/02","22:10",0.0,3.2,79.9,1021.5,296.6,1.0,1.8,331.6,0.00,0.1,7.3,"22:02:04",1
"24/02/02","22:20",0.0,3.3,80.1,1021.8,302.6,1.1,1.3,279.3,0.00,0.2,7.4,"22:10:34",1
"24/02/02","22:30",0.0,3.4,80.3,1021.5,297.6,1.3,1.8,324.2,0.00,0.4,7.3,"22:22:12",1
"24/02/02","22:40",0.0,3.4,80.5,1021.5,323.0,1.3,2.0,331.9,0.00,0.4,7.1,"22:31:20",1
"24/02/02","22:50",0.0,3.4,80.5,1021.5,305.1,0.8,1.6,320.1,0.00,0.4,7.2,"22:49:56",1
"24/02/02","23:00",0.0,3.6,80.4,1021.3,329.8,1.3,2.5,327.5,0.00,0.6,6.9,"22:50:34",1
"24/02/02","23:10",0.0,3.6,80.1,1021.3,311.8,1.6,2.6,324.1,0.00,0.5,7.2,"23:07:14",1
"24/02/02","23:20",0.0,3.6,80.2,1021.3,313.2,1.3,1.6,326.6,0.00,0.6,7.3,"23:12:08",1
"24/02/02","23:30",0.0,3.7,80.0,1021.5,324.8,1.2,2.0,331.6,0.00,0.6,7.1,"23:28:38",1
"24/02/02","23:40",0.0,3.7,80.1,1021.8,311.5,1.6,2.5,334.3,0.00,0.6,7.0,"23:39:50",1
"24/02/02","23:50",0.0,3.5,80.3,1022.0,324.1,2.0,3.3,317.3,0.00,0.5,7.1,"23:44:44",1
"24/02/02","24:00",0.0,3.6,80.4,1021.8,290.6,1.6,2.6,299.3,0.00,0.6,7.3,"23:53:38",1
